{"data":{"norad_id":68641,"epoch":"2026-09-20T04:15:10.469664Z","epoch_age_seconds":91048,"freshness":"FRESH","line1":"1 68641U 26075F   26263.17720451  .00000041  00000+0  44266-4 0  9991","line2":"2 68641  88.9863 311.3215 0002213  96.3606 263.7797 13.51027924 22620","mean_motion":13.51027924,"eccentricity":0.0002213,"inclination_deg":88.9863,"raan_deg":311.3215,"arg_perigee_deg":96.3606,"mean_anomaly_deg":263.7797,"bstar":4.4266e-5,"rev_number":2262,"period_min":106.58550977515,"perigee_km":1066.8310394144,"apogee_km":1070.1269116452,"semimajor_km":7446.6159755298,"source":"CELESTRAK","updated_at":"2026-09-20T09:00:24.368981Z"}}